Terminal Aerodrome Forecast
Issued by NWS Brownsville, TX

Home | Current Version | Previous Version | Text Only | Print | Product List | Glossary On
Versions: 1 2 3 4 5 6 7 8 9 10 11 12 13 14 15 16 17 18
000
FTUS44 KBRO 031531 AAB
TAFBRO
TAF AMD
KBRO 031531Z 0316/0412 15006KT P6SM VCSH SCT020 SCT026
      TEMPO 0316/0318 4SM SHRA BKN020 BKN025
     FM031800 15014KT P6SM VCSH OVC050
     FM040000 12008KT P6SM SKC=

USA.gov is the U.S. government's official web portal to all federal, state and local government web resources and services.